Tracking 29892 objects as of 21-Nov-2024
HD Live streaming from Space Station
objects crossing your sky now

STARLINK-4779

Track STARLINK-4779 now!
10-day predictions
STARLINK-4779 is classified as:


NORAD ID: 53864
Int'l Code: 2022-114AY
Perigee: 545.7 km
Apogee: 548.1 km
Inclination: 53.2 °
Period: 95.4 minutes
Semi major axis: 6917 km
RCS: Unknown
Launch date: September 19, 2022
Source: United States (US)
Launch site: AIR FORCE EASTERN TEST RANGE (AFETR)
Your satellite tracking list
Your tracking list is empty




NASA's NSSDC Master Catalog

Two Line Element Set (TLE):
1 53864U 22114AY  24325.77934509  .00000888  00000-0  73864-4 0  9992
2 53864  53.2154 251.1501 0001785  79.5432 280.5761 15.08837200121573
Source of the keplerian elements: AFSPC